[Date Prev][Date Next][Thread Prev][Thread Next] - [Date Index][Thread Index][Author Index]

2 Line ISS Keps 2-24



ISS
1 25544U 98067A   02055.18009259  .00054801  00000-0  64108-3 0  1134
2 25544  51.6387 260.8527 0011082 109.9398  44.6115 15.60950202186403


----
Via the sarex mailing list at AMSAT.ORG courtesy of AMSAT-NA.
To unsubscribe, send "unsubscribe sarex" to Majordomo@amsat.org



AMSAT Top AMSAT Home